Simultaneous Nadir Overpasses (SNOs) Predictions

Prediction of SNOs between AQUA and NPP Satellite Orbit:

Table of predicted SNOs for the next 14.0 days since TLE Epoch: 2/13/2021
Index Date (AQUA) Time (AQUA) Lat,Lon (AQUA) SZA (AQUA ) Date (NPP) Time (NPP) Lat,Lon (NPP) SZA (NPP ) Distance(km) Time Diff (sec)
1 02/15/2021 06:21:31 -76.33, 144.69 70.16 02/15/2021 06:21:04 -76.34, 144.79 70.16 2.75 27
2 02/15/2021 07:10:42 77.01, -45.29 109.04 02/15/2021 07:11:33 77.00, -45.31 109.00 0.76 51
3 02/17/2021 21:52:09 64.64, 73.49 120.96 02/17/2021 21:50:56 64.82, 72.37 121.25 56.68 73
4 02/17/2021 22:38:01 -76.30, -99.52 71.05 02/17/2021 22:38:00 -76.29, -99.60 71.03 2.46 1
5 02/17/2021 23:25:32 80.85, 95.61 102.52 02/17/2021 23:26:45 80.59, 96.59 102.33 33.87 73
6 02/20/2021 14:05:14 75.74,-153.01 108.66 02/20/2021 14:04:21 75.74,-153.01 108.71 0.16 53
7 02/20/2021 14:54:23 -76.65, 17.54 72.41 02/20/2021 14:54:47 -76.65, 17.49 72.41 1.36 24
8 02/23/2021 06:21:33 76.19, -35.74 107.17 02/23/2021 06:21:05 76.20, -35.70 107.19 0.93 28
9 02/23/2021 07:10:43 -77.04, 134.81 73.84 02/23/2021 07:11:32 -77.04, 134.82 73.88 0.20 49
10 02/25/2021 21:53:20 -60.69,-109.62 58.12 02/25/2021 21:52:07 -60.91,-110.95 57.76 76.33 73
11 02/25/2021 22:37:53 76.63, 81.61 105.67 02/25/2021 22:37:50 76.64, 81.70 105.65 2.46 3



Historial Predications of SNOs between AQUA and NPP
